Погода Шауляй

Поиск расширенной информации на нашем сайте:

Полезная информация:

Новости сайта



02.01.2020
Опубликован Долгосрочный прогноз погоды по городам России и ближнего зарубежья на январь 2020 года.
Карты: Прогноз на январь и февраль 2020 года, Сравнение прогнозируемой аномалии приземной температуры воздуха на январь 2020 года по разным моделям.




Погода Шауляй - сегодня

Время (UTC), дата Ветер
(°,м/с) 
Видим.   Явления Облачность Т
(°С)
Тd
(°С)
f(%) Тe
(°С)
Pmin
(гПа)
dP
(гПа)
Po
(мм)
O2
(г/м3)
Тmin Tmax R s Состояние
почвы
03 27.11.21 070 (В) 1-3{04}  2100 м  дымка  10/5 100 м средняя 
[St|Ac As]
+0 -0.6 96 +1  996.4  -1.9  737  297           
06 27.11.21 050 (СВ) 2-4{05}  1300 м  слаб. снег  10/10 150 м 
[Frnb|Ns]
+0.3 -0.2 96 995.3  -1.1  737  296  -0.5    0.2  <0.5  равномерный
мокрый или
старый снег
100% 
09 27.11.21 050 (СВ) 2-5{07}  1500 м  слаб. снег  10/10 210 м 
[Frnb|Ns]
+0.3 +0 98 994.4  -0.9  736  296         
12 27.11.21 050 (СВ) 3-8{08}  1900 м  слаб. дождь со снегом  10/10 150 м 
[Frnb|Ns]
+0.4 +0 97 -1  993.4  -0.9  735  296       
15 27.11.21 050 (СВ) 2-5{09}  2900 м  слаб. дождь со снегом  10/10 120 м 
[Frnb|Ns]
+0.4 +0 97 993.6  0.2  735  296         
18 27.11.21 050 (СВ) 2-3{06}  1900 м  слаб. дождь со снегом  10/10 150 м 
[Frnb|Ns]
+0.2 -0.1 98 -1  994.8  1.1  736  296    +0.4   
21 27.11.21 080 (В) 1-4{06}  3100 м  слаб. дождь со снегом [диам. отлож. мокр. снега 2 мм]  10/10 120 м 
[Frnb|Ns]
+0 -0.3 98 +1  996  1.2  737  297         
00 28.11.21 050 (СВ) 1-3{04}  4000 м  слаб. снег [диам. отлож. мокр. снега 3 мм]  10/10 150 м 
[Frnb|Ns]
-0.2 -0.5 98 996.4  0.4  737  297       
03 28.11.21 100 (В) 1-2{03}  10 км  слаб. переохл. морось (гололёд){снег} [диам. сложн. отлож. 4 мм]  10/10 120 м 
[St]
-0.3 -0.6 98 996.9  0.5  738  298         
06 28.11.21 260 (З) 1-2{02}  0500 м  слаб. снег{морось} [диам. сложн. отлож. 4 мм]  ?/?  
-0.1 -0.4 98 +1  998.1  1.2  739  298  -0.5    равномерный
мокрый или
старый снег
100% 
09 28.11.21 210 (ЮЗ) 2-4{05}  7000 м  дымка{снег, туман} [диам. сложн. отлож. 0 мм]  10/10 150 м 
[St]
+0.7 -0.1 94 999.3  1.3  740  297         
12 28.11.21 200 (Ю) 1-3{05}  4200 м  дымка{снег, туман}  10/10 360 м 
[St]
+1.2 +0.2 93 +2  1000.1  0.7  740  297      0.0   
15 28.11.21 150 (ЮВ) 2-3{05}  9000 м  дымка  10/10 330 м 
[St]
+0.9 -0.4 91 1000.8  0.7  741  297         
18 28.11.21 150 (ЮВ) 2-4{06}  15000 м    10/10 300 м 
[St]
+0.4 -1 90 1001.3  0.5  741  298    +1.4  0.0   
21 28.11.21 070 (В) 1-2{05}  12000 м    9/9 600 м 
[Sc]
-0.4 -1 96 1001.3  741  299         
00 29.11.21 060 (СВ) 3-5{05}  5000 м  дымка  10/8 120 м средняя 
[St|Ac trans]
-0.2 -0.7 96 -2  999.6  -1.7  740  298         
03 29.11.21 060 (СВ) 4-7{07}  13000 м    10/6 1000 м средняя 
[Sc|Ac trans]
+0.2 -0.8 93 -2  998.1  -1.4  739  297         
06 29.11.21 050 (СВ) 3-6{08}  1500 м  слаб. снег  10/10 150 м 
[Frnb|Ns]
-0.3 -0.8 96 -2  996.2  -1.9  737  297  -0.9    0.7  мокрый или
старый снег
10-40% 
09 29.11.21 040 (СВ) 3-7{09}  0700 м  снег  10/10 120 м 
[Frnb|Ns]
-0.6 -0.9 98 -2  994.8  -1.4  736  297         
12 29.11.21 080 (В) 4-9{10}  1600 м  слаб. снег  10/10 270 м 
[Frnb|Ns]
-1.2 -1.7 96 -4  992.4  -2.3  734  297       
15 29.11.21 120 (ЮВ) 4-8{11}  4000 м  слаб. снег  10/10 330 м 
[Frnb|Ns]
-2 -3 93 -5  991.3  -1.2  734  298        11   
18 29.11.21 300 (СЗ) 4-7{12}  6000 м  слаб. снег  10/10 270 м 
[Frnb|Ns]
-2.2 -3.5 91 -5  990.3  -1  733  298    -0.3  11   
21 29.11.21 330 (СЗ) 6-11{12}  6000 м  слаб. снег  10/10 300 м 
[Frnb|Ns]
-1 -2.4 90 -5  989.7  -0.6  732  296        11   
00 30.11.21 320 (СЗ) 6-11{12}  19000 м  слаб. снег  10/10 360 м 
[Frnb|Ns]
-1.2 -2.9 88 -5  989.9  0.2  732  297      0.3  11   
03 30.11.21 320 (СЗ) 6-9{15}  20000 м  слаб. снег  10/10 500 м 
[Ns]
-1.6 -3.8 85 -5  990.9  1.1  733  298        11   
Время (UTC), дата Ветер
(°,м/с) 
Видим.   Явления Облачность Т
(°С)
Тd
(°С)
f(%) Тe
(°С)
Pmin
(гПа)
dP
(гПа)
Po
(мм)
O2
(г/м3)
Тmin Tmax R s Состояние
почвы

Для получения пояснительной информации подведите курсор к названию столбца.

ПОГОДА Шауляй - архив

Всё, что Вы хотите узнать о погоде Шауляй - удобно и подробно!

Выберите нужную дату (начиная с 1 января 2019* года) и нажмите кнопку "Найти".
Будут отображены архивные сводки погоды по пункту Шауляй, начиная с указанной даты.


Отображать данные в формате CSV (для использования в таблицах Excel)


Внимание! Наш архив погоды предназначен исключительно для личного некоммерческого использования в познавательных целях. Если Вам необходимы официальные справки о состоянии погоды (для производственных, юридических, коммерческих и т.п. целей), обращайтесь в органы Росгидромета.

*Примечание: данная дата относится к архиву по метеостанциям СССР (Россия, СНГ, Балтия).
Архив по метеостанциям Зарубежной Европы и Азии (кроме Китая) хранится 10 дней, по другим регионам земного шара (Китай, Африка, Америка, Австралия, Океания) - 1 день.

Шауляй - район местоположения метеостанции


Название, широта, долгота, высота метеостанции:
Шауляй 55.9°ш. 23.3°д. 107 м над ур. моря [Литва]

Дополнительная информация

В oтличие oт бoльшинства пoгoдных сайтoв мы публикуем пoдрoбную метеoинфoрмацию в детальнoм прoфессиoнальнoм фoрмате.

Характеристики температуры и влажнoсти вoздуха измеряются на высoте 2 м в тени вдали oт зданий и деревьев.
Скoрoсть ветра измеряется на высoте 10 м (на урoвне рoста челoвека скoрoсть ветра ниже в 1.5-2 раза). Если метеoстанция нахoдится в гoрoде или в лесу, тo скoрoсть ветра занижена на 2-4 м/с пo сравнению с oткрытым местoм. Скoрoсть ветра над акватoриями крупных рек и oзёр, а также на вершинах хoлмoв на 2-5 м/с выше, чем в oбычных услoвиях.
Атмoсфернoе давление в разных тoчках местнoсти мoжет значительнo oтличаться oт давления на метеoстанции, в зависимoсти oт услoвий рельефа (при пoдъёме на 10 м давление пoнижается примернo на 1 мм рт.ст.).